Overview Statistics Trail Chart Weather Telemetry Raw packets
 

This is the latest recevied weather packets stored in our database for station/object WD7OO. If no packets are shown the sender has not sent any weather packets the latest 10 day(s).

<< 72 73 74 75 76 77 78 >>
Time Temp. Humidity Pressure Rain* Wind** Luminosity Snow
1788112223 25° C 83% 1017.6 hPa 0 mm - 668 W/m² -
1788111919 25° C 85% 1017.6 hPa 0 mm - 658 W/m² -
1788111614 24.44° C 85% 1017.5 hPa 0 mm - 661 W/m² -
1788111309 24.44° C 87% 1017.4 hPa 0 mm - 652 W/m² -
1788111004 23.89° C 87% 1017.5 hPa 0 mm - 638 W/m² -
1788110701 23.89° C 90% 1017.8 hPa 0 mm - 661 W/m² -
1788110396 23.33° C 89% 1018 hPa 0 mm - 643 W/m² -
1788110092 22.78° C 93% 1017.6 hPa 0 mm - 649 W/m² -
1788109792 23.33° C 94% 1017.9 hPa 0 mm - 281 W/m² -
1788109486 22.78° C 96% 1018 hPa 0 mm - 623 W/m² -
1788109184 21.67° C 97% 1018.3 hPa 0 mm - 569 W/m² -
1788108881 21.11° C 98% 1018.3 hPa 0 mm - 488 W/m² -
1788108577 20.56° C 99% 1018.6 hPa 0 mm - 327 W/m² -
1788108272 20.56° C 99% 1018.8 hPa 0 mm - 144 W/m² -
1788107968 20.56° C 99% 1019 hPa 0 mm - 134 W/m² -
1788107665 20.56° C 99% 1018.8 hPa 0 mm - 163 W/m² -
1788107364 20.56° C 99% 1018.7 hPa 0 mm - 209 W/m² -
1788107061 20° C 99% 1018.6 hPa 0 mm - 257 W/m² -
1788106760 20.56° C 99% 1018.8 hPa 0 mm - 229 W/m² -
1788106460 20° C 99% 1018.7 hPa 0 mm - 190 W/m² -
1788106155 20° C 99% 1018.6 hPa 0 mm - 220 W/m² -
1788105851 20° C 99% 1018.6 hPa 0 mm - 176 W/m² -
1788105546 19.44° C 99% 1018.9 hPa 0 mm - 135 W/m² -
1788105242 19.44° C 99% 1018.8 hPa 0 mm - 118 W/m² -
1788104937 19.44° C 99% 1018.9 hPa 0 mm - 58 W/m² -

* Rain latest hour (hover to see other rain measurements)
** Current wind speed in m/s (hover to see current wind gust speed)